MDG311 FMNS-FMMI

Flight info

Callsign MDG311
Flight time N/A
Altitude 16000
Route UVGET DCT GATLA GATLA1B
Aircraft AT75/M-SDFGIRY/S

Departure

Time 2026-05-08 14:11
Airport Sambava Airport (FMNS)

Arrival

Time N/A
Airport Ivato International Airport (FMMI)
Time Latitude Longitude Altitude Speed Heading
2026-05-08 13:45 -14.27842 50.17622 24 ft 0 kts 328°
2026-05-08 14:04 -14.27838 50.17619 23 ft 5 kts 328°
2026-05-08 14:04 -14.27811 50.17570 24 ft 10 kts 265°
2026-05-08 14:05 -14.27838 50.17506 23 ft 9 kts 240°
2026-05-08 14:05 -14.27878 50.17477 22 ft 3 kts 169°
2026-05-08 14:05 -14.27906 50.17490 22 ft 8 kts 152°
2026-05-08 14:05 -14.27978 50.17531 23 ft 15 kts 151°
2026-05-08 14:06 -14.28058 50.17577 22 ft 10 kts 151°
2026-05-08 14:06 -14.28132 50.17618 21 ft 15 kts 151°
2026-05-08 14:06 -14.28233 50.17676 22 ft 18 kts 152°
2026-05-08 14:06 -14.28351 50.17742 23 ft 20 kts 153°
2026-05-08 14:07 -14.28478 50.17815 23 ft 22 kts 152°
2026-05-08 14:07 -14.28617 50.17894 25 ft 23 kts 151°
2026-05-08 14:07 -14.28735 50.17959 24 ft 3 kts 160°
2026-05-08 14:07 -14.28745 50.17959 24 ft 3 kts 196°
2026-05-08 14:08 -14.28765 50.17954 24 ft 2 kts 168°
2026-05-08 14:08 -14.28762 50.17974 24 ft 5 kts 39°
2026-05-08 14:08 -14.28748 50.17975 23 ft 3 kts 334°
2026-05-08 14:08 -14.28727 50.17956 24 ft 0 kts 335°
2026-05-08 14:10 -14.28719 50.17953 24 ft 12 kts 335°
2026-05-08 14:11 -14.28465 50.17809 23 ft 70 kts 331°
2026-05-08 14:11 -14.27865 50.17470 23 ft 126 kts 329°
2026-05-08 14:11 -14.26992 50.16935 127 ft 156 kts 329°
2026-05-08 14:11 -14.26100 50.16370 837 ft 149 kts 326°
2026-05-08 14:12 -14.25227 50.15750 1325 ft 157 kts 321°
2026-05-08 14:12 -14.24555 50.14903 1804 ft 156 kts 278°
2026-05-08 14:12 -14.24888 50.13984 2331 ft 140 kts 200°
2026-05-08 14:12 -14.25678 50.14372 2549 ft 149 kts 121°
2026-05-08 14:13 -14.26483 50.15036 2858 ft 165 kts 169°
2026-05-08 14:13 -14.27641 50.14683 3193 ft 191 kts 214°
2026-05-08 14:13 -14.28672 50.13786 3494 ft 197 kts 216°
2026-05-08 14:13 -14.29746 50.12889 3808 ft 200 kts 213°
2026-05-08 14:14 -14.30889 50.12055 4130 ft 203 kts 209°
2026-05-08 14:14 -14.32084 50.11315 4443 ft 204 kts 205°
2026-05-08 14:14 -14.33344 50.10633 4770 ft 205 kts 202°
2026-05-08 14:14 -14.34632 50.09993 5087 ft 206 kts 201°
2026-05-08 14:15 -14.35932 50.09358 5395 ft 208 kts 201°
2026-05-08 14:15 -14.37267 50.08718 5712 ft 209 kts 201°
2026-05-08 14:15 -14.38567 50.08093 6031 ft 210 kts 202°
2026-05-08 14:15 -14.39888 50.07439 6348 ft 211 kts 202°
2026-05-08 14:16 -14.41212 50.06774 6657 ft 212 kts 202°
2026-05-08 14:16 -14.42540 50.06111 6957 ft 213 kts 202°
2026-05-08 14:16 -14.43873 50.05440 7268 ft 214 kts 203°
2026-05-08 14:16 -14.45210 50.04767 7554 ft 214 kts 202°
2026-05-08 14:17 -14.46549 50.04098 7886 ft 214 kts 203°
2026-05-08 14:17 -14.47887 50.03424 8208 ft 215 kts 202°
2026-05-08 14:17 -14.49231 50.02750 8531 ft 215 kts 202°
2026-05-08 14:17 -14.50579 50.02073 8859 ft 214 kts 203°
2026-05-08 14:18 -14.51901 50.01405 9175 ft 210 kts 202°
2026-05-08 14:18 -14.53201 50.00759 9509 ft 205 kts 202°
2026-05-08 14:18 -14.54476 50.00118 9842 ft 202 kts 202°
2026-05-08 14:18 -14.55727 49.99491 10148 ft 199 kts 202°
2026-05-08 14:19 -14.56959 49.98875 10445 ft 195 kts 202°
2026-05-08 14:19 -14.58172 49.98269 10755 ft 192 kts 202°
2026-05-08 14:19 -14.59368 49.97669 11059 ft 190 kts 203°
2026-05-08 14:19 -14.60545 49.97075 11363 ft 187 kts 203°
2026-05-08 14:20 -14.61702 49.96493 11672 ft 183 kts 202°
2026-05-08 14:20 -14.62837 49.95925 11984 ft 180 kts 203°
2026-05-08 14:20 -14.63965 49.95373 12241 ft 177 kts 202°
2026-05-08 14:20 -14.65062 49.94832 12523 ft 172 kts 203°
2026-05-08 14:21 -14.66105 49.94306 12792 ft 162 kts 204°
2026-05-08 14:21 -14.67087 49.93848 12728 ft 154 kts 197°
2026-05-08 14:21 -14.68151 49.93464 12362 ft 166 kts 197°
2026-05-08 14:21 -14.69205 49.92945 12193 ft 168 kts 207°
2026-05-08 14:22 -14.70189 49.92349 12160 ft 159 kts 206°
2026-05-08 14:22 -14.71120 49.91795 12057 ft 154 kts 208°
2026-05-08 14:22 -14.72081 49.91202 11837 ft 178 kts 208°
2026-05-08 14:22 -14.73168 49.90498 12163 ft 189 kts 211°
2026-05-08 14:23 -14.74237 49.89665 12657 ft 190 kts 219°
2026-05-08 14:23 -14.75175 49.88743 13223 ft 186 kts 226°
2026-05-08 14:23 -14.76070 49.87797 13701 ft 184 kts 229°
2026-05-08 14:23 -14.76591 49.86544 13650 ft 210 kts 274°
2026-05-08 14:24 -14.75865 49.85103 13043 ft 236 kts 297°
2026-05-08 14:24 -14.75745 49.83527 13899 ft 216 kts 252°
2026-05-08 14:24 -14.76478 49.82145 13844 ft 243 kts 232°
2026-05-08 14:24 -14.77866 49.81060 13827 ft 255 kts 198°
2026-05-08 14:25 -14.79624 49.80854 13879 ft 259 kts 170°
2026-05-08 14:25 -14.81386 49.81258 13947 ft 259 kts 166°
2026-05-08 14:25 -14.83126 49.81631 14247 ft 253 kts 168°
2026-05-08 14:25 -14.84852 49.81905 14520 ft 249 kts 172°
2026-05-08 14:26 -14.86567 49.81988 14791 ft 246 kts 179°
2026-05-08 14:26 -14.88266 49.81894 15059 ft 243 kts 185°
2026-05-08 14:26 -14.89923 49.81617 15342 ft 240 kts 189°
2026-05-08 14:26 -14.91532 49.81198 15618 ft 237 kts 196°
2026-05-08 14:27 -14.93076 49.80613 15888 ft 236 kts 201°
2026-05-08 14:27 -14.94590 49.79896 15986 ft 243 kts 205°
2026-05-08 14:27 -14.96123 49.79108 16031 ft 248 kts 205°
2026-05-08 14:27 -14.97674 49.78305 16059 ft 250 kts 205°
2026-05-08 14:28 -14.99239 49.77504 16062 ft 252 kts 204°
2026-05-08 14:28 -15.00819 49.76713 16069 ft 253 kts 205°
2026-05-08 14:28 -15.02382 49.75872 16079 ft 254 kts 207°
2026-05-08 14:28 -15.03936 49.74977 16075 ft 256 kts 208°
2026-05-08 14:29 -15.05482 49.74060 16070 ft 257 kts 208°
2026-05-08 14:29 -15.07032 49.73145 16083 ft 258 kts 208°
2026-05-08 14:29 -15.08596 49.72230 16080 ft 258 kts 208°
2026-05-08 14:29 -15.10164 49.71315 16082 ft 259 kts 208°
2026-05-08 14:30 -15.11738 49.70400 16077 ft 260 kts 208°
2026-05-08 14:30 -15.13314 49.69482 16071 ft 260 kts 208°
2026-05-08 14:30 -15.14892 49.68562 16077 ft 260 kts 208°
2026-05-08 14:30 -15.16470 49.67638 16081 ft 261 kts 208°
2026-05-08 14:31 -15.18026 49.66729 16084 ft 261 kts 208°
2026-05-08 14:31 -15.19612 49.65806 16082 ft 261 kts 208°
2026-05-08 14:31 -15.21196 49.64880 16077 ft 262 kts 208°
2026-05-08 14:32 -15.24366 49.63028 16080 ft 262 kts 208°
2026-05-08 14:32 -15.25954 49.62103 16073 ft 262 kts 208°
2026-05-08 14:32 -15.27540 49.61175 16082 ft 262 kts 208°
2026-05-08 14:32 -15.29126 49.60246 16083 ft 262 kts 208°
2026-05-08 14:33 -15.30717 49.59319 16076 ft 262 kts 208°
2026-05-08 14:33 -15.32308 49.58392 16080 ft 262 kts 208°
2026-05-08 14:33 -15.33898 49.57460 16080 ft 262 kts 208°
2026-05-08 14:33 -15.35485 49.56526 16077 ft 262 kts 207°
2026-05-08 14:34 -15.37075 49.55598 16088 ft 262 kts 208°
2026-05-08 14:34 -15.38664 49.54672 16085 ft 262 kts 208°
2026-05-08 14:34 -15.40252 49.53742 16085 ft 262 kts 208°
2026-05-08 14:34 -15.41838 49.52817 16084 ft 262 kts 208°
2026-05-08 14:35 -15.43426 49.51887 16091 ft 262 kts 208°
2026-05-08 14:35 -15.45015 49.50957 16084 ft 262 kts 208°
2026-05-08 14:35 -15.46604 49.50029 16087 ft 262 kts 208°
2026-05-08 14:35 -15.48192 49.49100 16084 ft 262 kts 208°
2026-05-08 14:36 -15.49778 49.48170 16092 ft 262 kts 208°
2026-05-08 14:36 -15.51363 49.47241 16084 ft 262 kts 208°
2026-05-08 14:36 -15.52947 49.46310 16094 ft 262 kts 208°
2026-05-08 14:36 -15.54534 49.45384 16081 ft 262 kts 208°
2026-05-08 14:37 -15.56121 49.44452 16085 ft 262 kts 208°
2026-05-08 14:37 -15.57705 49.43520 16078 ft 262 kts 208°
2026-05-08 14:37 -15.59289 49.42591 16094 ft 262 kts 208°
2026-05-08 14:37 -15.60874 49.41665 16096 ft 262 kts 209°
2026-05-08 14:38 -15.62457 49.40733 16092 ft 262 kts 208°
2026-05-08 14:38 -15.64042 49.39803 16095 ft 261 kts 208°
2026-05-08 14:38 -15.65624 49.38877 16095 ft 261 kts 208°
2026-05-08 14:38 -15.67208 49.37946 16080 ft 261 kts 208°
2026-05-08 14:39 -15.68786 49.37020 16094 ft 261 kts 208°
2026-05-08 14:39 -15.70368 49.36092 16095 ft 261 kts 208°
2026-05-08 14:39 -15.71949 49.35164 16090 ft 261 kts 208°
2026-05-08 14:39 -15.73530 49.34236 16092 ft 261 kts 208°
2026-05-08 14:40 -15.75106 49.33309 16086 ft 261 kts 209°
2026-05-08 14:40 -15.76153 49.32694 16093 ft 261 kts 208°
2026-05-08 14:40 -15.77731 49.31766 16096 ft 261 kts 208°
2026-05-08 14:40 -15.79309 49.30839 16086 ft 261 kts 209°
2026-05-08 14:41 -15.81398 49.29612 16083 ft 260 kts 208°
2026-05-08 14:41 -15.82463 49.28986 16092 ft 260 kts 209°
2026-05-08 14:41 -15.84551 49.27758 16082 ft 260 kts 209°
2026-05-08 14:41 -15.86128 49.26832 16083 ft 260 kts 209°
2026-05-08 14:42 -15.87190 49.26207 16091 ft 260 kts 209°
2026-05-08 14:42 -15.88766 49.25280 16089 ft 260 kts 209°
2026-05-08 14:42 -15.90344 49.24352 16091 ft 260 kts 209°
2026-05-08 14:42 -15.91916 49.23426 16087 ft 260 kts 209°
2026-05-08 14:43 -15.93492 49.22499 16087 ft 260 kts 209°
2026-05-08 14:43 -15.95067 49.21571 16086 ft 260 kts 209°
2026-05-08 14:43 -15.96641 49.20644 16088 ft 260 kts 208°
2026-05-08 14:43 -15.98198 49.19728 16086 ft 260 kts 208°
2026-05-08 14:44 -15.99773 49.18800 16084 ft 260 kts 209°
2026-05-08 14:44 -16.01347 49.17874 16085 ft 260 kts 209°
2026-05-08 14:44 -16.02917 49.16947 16083 ft 260 kts 208°
2026-05-08 14:44 -16.04493 49.16021 16083 ft 260 kts 209°
2026-05-08 14:45 -16.06068 49.15092 16083 ft 260 kts 209°
2026-05-08 14:45 -16.07642 49.14164 16082 ft 260 kts 209°
2026-05-08 14:45 -16.09216 49.13234 16083 ft 260 kts 209°
2026-05-08 14:45 -16.10787 49.12308 16084 ft 260 kts 209°
2026-05-08 14:46 -16.12359 49.11381 16087 ft 260 kts 209°
2026-05-08 14:46 -16.13933 49.10453 16085 ft 260 kts 209°
2026-05-08 14:46 -16.15506 49.09523 16087 ft 260 kts 209°
2026-05-08 14:46 -16.17078 49.08594 16085 ft 260 kts 209°
2026-05-08 14:47 -16.18649 49.07667 16085 ft 260 kts 208°
2026-05-08 14:47 -16.20220 49.06737 16088 ft 260 kts 209°
2026-05-08 14:47 -16.21792 49.05809 16091 ft 260 kts 209°
2026-05-08 14:47 -16.23363 49.04884 16090 ft 260 kts 209°
2026-05-08 14:48 -16.24933 49.03956 16086 ft 260 kts 209°
2026-05-08 14:48 -16.26502 49.03027 16088 ft 260 kts 209°
2026-05-08 14:48 -16.28073 49.02103 16089 ft 259 kts 209°
2026-05-08 14:48 -16.29641 49.01171 16088 ft 259 kts 209°
2026-05-08 14:49 -16.31211 49.00242 16090 ft 259 kts 209°
2026-05-08 14:49 -16.32778 48.99314 16090 ft 259 kts 209°
2026-05-08 14:49 -16.34345 48.98388 16092 ft 259 kts 209°
2026-05-08 14:49 -16.35893 48.97473 16090 ft 259 kts 209°
2026-05-08 14:50 -16.37461 48.96547 16093 ft 259 kts 209°
2026-05-08 14:50 -16.39027 48.95620 16095 ft 259 kts 209°
2026-05-08 14:50 -16.40595 48.94690 16094 ft 259 kts 209°
2026-05-08 14:50 -16.42165 48.93763 16097 ft 259 kts 209°
2026-05-08 14:51 -16.43729 48.92834 16096 ft 259 kts 209°
2026-05-08 14:51 -16.45299 48.91903 16097 ft 259 kts 209°
2026-05-08 14:51 -16.46867 48.90977 16096 ft 259 kts 209°
2026-05-08 14:51 -16.48433 48.90048 16098 ft 259 kts 209°
2026-05-08 14:52 -16.50003 48.89118 16101 ft 259 kts 209°
2026-05-08 14:52 -16.53137 48.87262 16101 ft 259 kts 209°
2026-05-08 14:52 -16.54702 48.86333 16103 ft 259 kts 209°
2026-05-08 14:53 -16.56270 48.85403 16099 ft 259 kts 209°
2026-05-08 14:53 -16.57839 48.84476 16100 ft 259 kts 208°
2026-05-08 14:53 -16.59407 48.83545 16100 ft 259 kts 208°
2026-05-08 14:53 -16.60952 48.82633 16103 ft 259 kts 209°
2026-05-08 14:54 -16.62520 48.81704 16103 ft 258 kts 209°
2026-05-08 14:54 -16.63973 48.80603 16105 ft 259 kts 219°
2026-05-08 14:54 -16.65328 48.79359 16103 ft 260 kts 221°
2026-05-08 14:54 -16.66674 48.78096 16102 ft 260 kts 221°
2026-05-08 14:55 -16.68040 48.76857 16100 ft 260 kts 219°
2026-05-08 14:55 -16.69433 48.75657 16099 ft 260 kts 218°
2026-05-08 14:55 -16.70841 48.74479 16101 ft 259 kts 217°
2026-05-08 14:55 -16.72245 48.73303 16101 ft 259 kts 218°
2026-05-08 14:56 -16.73636 48.72110 16097 ft 259 kts 218°
2026-05-08 14:56 -16.75025 48.70912 16098 ft 259 kts 218°
2026-05-08 14:56 -16.76412 48.69718 16103 ft 259 kts 218°
2026-05-08 14:56 -16.77801 48.68522 16100 ft 259 kts 218°
2026-05-08 14:57 -16.79192 48.67329 16097 ft 259 kts 218°
2026-05-08 14:57 -16.80564 48.66148 16098 ft 259 kts 218°
2026-05-08 14:57 -16.81955 48.64953 16100 ft 259 kts 218°
2026-05-08 14:57 -16.83346 48.63750 16095 ft 260 kts 218°
2026-05-08 14:58 -16.84737 48.62553 16095 ft 260 kts 218°
2026-05-08 14:58 -16.86132 48.61355 16095 ft 260 kts 218°
2026-05-08 14:58 -16.87528 48.60156 16096 ft 260 kts 218°
2026-05-08 14:58 -16.88921 48.58953 16095 ft 260 kts 218°
2026-05-08 14:59 -16.90315 48.57749 16095 ft 260 kts 218°
2026-05-08 14:59 -16.93109 48.55344 16096 ft 260 kts 218°
2026-05-08 14:59 -16.94508 48.54137 16095 ft 261 kts 218°
2026-05-08 15:00 -16.95904 48.52934 16092 ft 261 kts 218°
2026-05-08 15:00 -16.97305 48.51728 16088 ft 261 kts 218°
2026-05-08 15:00 -16.98706 48.50521 16090 ft 261 kts 218°
2026-05-08 15:00 -17.00104 48.49311 16090 ft 261 kts 218°
2026-05-08 15:01 -17.01504 48.48100 16092 ft 261 kts 218°
2026-05-08 15:01 -17.02908 48.46889 16096 ft 261 kts 218°
2026-05-08 15:01 -17.04312 48.45684 16094 ft 261 kts 218°
2026-05-08 15:01 -17.05711 48.44472 16089 ft 262 kts 218°
2026-05-08 15:02 -17.07115 48.43260 16089 ft 261 kts 218°
2026-05-08 15:02 -17.08516 48.42050 16091 ft 262 kts 218°
2026-05-08 15:02 -17.09898 48.40851 16090 ft 261 kts 218°
2026-05-08 15:02 -17.11298 48.39636 16093 ft 262 kts 218°
2026-05-08 15:03 -17.12704 48.38424 16099 ft 262 kts 218°
2026-05-08 15:03 -17.14110 48.37212 16094 ft 262 kts 218°
2026-05-08 15:03 -17.15520 48.35997 16094 ft 263 kts 218°
2026-05-08 15:03 -17.16928 48.34779 16091 ft 263 kts 218°
2026-05-08 15:04 -17.18333 48.33561 16088 ft 262 kts 218°
2026-05-08 15:04 -17.19735 48.32339 16093 ft 262 kts 218°
2026-05-08 15:04 -17.21139 48.31120 16089 ft 262 kts 218°
2026-05-08 15:04 -17.22548 48.29905 16091 ft 263 kts 218°
2026-05-08 15:05 -17.23958 48.28691 16087 ft 263 kts 218°
2026-05-08 15:05 -17.25363 48.27475 16093 ft 262 kts 218°
2026-05-08 15:05 -17.26751 48.26243 16092 ft 261 kts 222°
2026-05-08 15:05 -17.28147 48.25067 16091 ft 254 kts 211°
2026-05-08 15:06 -17.29546 48.23960 16074 ft 251 kts 214°
2026-05-08 15:06 -17.30868 48.22788 16090 ft 248 kts 217°
2026-05-08 15:06 -17.32137 48.21618 16095 ft 245 kts 217°
2026-05-08 15:06 -17.33420 48.20449 16092 ft 243 kts 216°
2026-05-08 15:07 -17.34705 48.19307 16095 ft 242 kts 216°
2026-05-08 15:07 -17.35997 48.18185 16096 ft 241 kts 215°
2026-05-08 15:07 -17.37285 48.17071 16095 ft 240 kts 215°
2026-05-08 15:07 -17.38565 48.15961 16097 ft 239 kts 215°
2026-05-08 15:08 -17.39845 48.14851 16101 ft 238 kts 215°
2026-05-08 15:08 -17.40705 48.14103 16101 ft 238 kts 215°
2026-05-08 15:08 -17.42392 48.12635 16103 ft 238 kts 215°
2026-05-08 15:08 -17.43661 48.11525 16102 ft 238 kts 215°
2026-05-08 15:09 -17.44929 48.10416 16102 ft 237 kts 216°
2026-05-08 15:09 -17.46199 48.09309 16105 ft 237 kts 215°
2026-05-08 15:09 -17.47467 48.08206 16104 ft 237 kts 215°
2026-05-08 15:09 -17.48738 48.07100 16106 ft 237 kts 215°
2026-05-08 15:10 -17.50007 48.05997 16109 ft 237 kts 215°
2026-05-08 15:10 -17.51271 48.04891 16110 ft 237 kts 216°
2026-05-08 15:10 -17.52539 48.03788 16107 ft 236 kts 215°
2026-05-08 15:10 -17.53787 48.02702 16102 ft 236 kts 215°
2026-05-08 15:11 -17.55047 48.01604 16111 ft 236 kts 215°
2026-05-08 15:11 -17.56310 48.00505 16115 ft 236 kts 215°
2026-05-08 15:11 -17.57572 47.99407 16112 ft 236 kts 215°
2026-05-08 15:11 -17.58832 47.98308 16114 ft 236 kts 215°
2026-05-08 15:12 -17.60092 47.97209 16113 ft 236 kts 215°
2026-05-08 15:12 -17.61351 47.96110 16117 ft 236 kts 216°
2026-05-08 15:12 -17.62610 47.95010 16122 ft 236 kts 215°
2026-05-08 15:12 -17.63873 47.93915 16117 ft 235 kts 215°
2026-05-08 15:13 -17.65133 47.92819 16120 ft 235 kts 215°
2026-05-08 15:13 -17.66393 47.91723 16120 ft 236 kts 215°
2026-05-08 15:13 -17.67650 47.90622 16121 ft 235 kts 215°
2026-05-08 15:13 -17.68909 47.89527 16117 ft 235 kts 215°